星链-3994 (STARLINK-3994 )

导读

STARLINK-3994是美国太空探索技术公司(SpaceX)星链(Starlink)星座的卫星,于2022年5月14日发射入轨,星链计划旨在构建全球卫星互联网星座,为全球提供高速低延迟的宽带互联网服务,该卫星承担着星座组网运行,拓展全球通信覆盖能力的任务。

Basic Information
目录编号:
52633
目录名称:
STARLINK-3994
国际标识:
2022-052AM
轨道中心:
EARTH
卫星名称:
星链-3994
卫星全名:
星链-3994 (STARLINK-3994 )
卫星状态:
在轨 (已飞行1575 天)
发射日期:
2022-05-14 UTC
国别 :
美国 (US)
星等 :
--
Orbit Information
数据来源 国际轨道数据 AOE轨道数据
星历时间 2026-09-05T03:26:54+0800
17小时前
查看轨道信息
2026-08-29T22:00:00+0800
6天前
查看轨道信息
半长轴 6917.863km 6917.9km
偏心率 0.0001702 0.0001456
轨道倾角 53.162° 53.156°
近地点辐角 87.814° 76.537°
升交点赤经 184.447° 212.435°
平近点角 272.305° 281.083°
近地点 538.548km 538.755km
远地点 540.904km 540.771km
周期 95.437分钟 95.438分钟
每日圈数 15.08846 15.088339
Detailed Information
固有亮度:
5
最大亮度:
2.5
卫星平台:
Starlink v1.5
覆盖范围:
全球
运营商:
太空探索技术公司
运营商所在国:
美国
制造商(研发单位):
太空探索技术公司
制造商所在国:
美国
使用方式:
暂无
Satellite Introduction
星链(Starlink)计划是由太空探索技术公司(SpaceX)提出的一个巨型低轨卫星互联网星座项目,计划在2019年至2024年间在太空搭建由约1.2万颗卫星组成的“星链”网络,其中1584颗将部署在地球上空550千米处的近地轨道,并从2020年开始工作。该卫星仍在工作。
2D Orbit Map
3D Orbit Map
Orbit Altitude Analysis Chart
Orbit Inclination Analysis Chart
Orbit Comprehensive Analysis Chart
View Comprehensive Chart
Conjunction Data List
Event ID Objects TCA Miss Dist (km) Collision Risk Probability Collision Risk Index (CRI) Action
CDM_260903-060902-556005-263326
SWAS (25560)
2026-09-03T
06:09:35+0000
0.994 km
远距离
2.561857E-5 中风险 0.63
CDM_260906-004305-263305-553421
2026-09-06T
00:43:28+0000
1.384 km
极远距离
8.70954E-6 低风险 0.54
CDM_260903-052505-263306-876225
2026-09-03T
05:25:02+0000
1.948 km
极远距离
3.038184E-6 低风险 0.45
CDM_260905-215305-263306-329121
OBJECT A (63291)
2026-09-05T
21:53:59+0000
2.767 km
极远距离
1.45795E-6 低风险 0.38
CDM_260907-201405-263305-390521
2026-09-07T
20:14:26+0000
2.098 km
极远距离
1.261361E-6 低风险 0.37